This is the latest recevied weather packets stored in our database for station/object KD4WLE. If no packets are shown the sender has not sent any weather packets the latest 10 day(s).
| Time | Temp. | Humidity | Pressure | Rain* | Wind** | Luminosity | Snow |
|---|---|---|---|---|---|---|---|
| 1777593741 | 28.33° C | 57% | 1010.1 hPa | 0 mm | - | 1 W/m² | - |
| 1777593438 | 28.33° C | 56% | 1010 hPa | 0 mm | - | 2 W/m² | - |
| 1777593136 | 28.33° C | 55% | 1009.7 hPa | 0 mm | - | 4 W/m² | - |
| 1777592835 | 28.89° C | 55% | 1009.8 hPa | 0 mm | - | 7 W/m² | - |
| 1777592532 | 28.89° C | 54% | 1009.4 hPa | 0 mm | - | 12 W/m² | - |
| 1777592228 | 28.89° C | 53% | 1009.5 hPa | 0 mm | - | 17 W/m² | - |
| 1777591924 | 29.44° C | 53% | 1009.6 hPa | 0 mm | - | 22 W/m² | - |
| 1777591620 | 29.44° C | 52% | 1009.3 hPa | 0 mm | - | 26 W/m² | - |
| 1777591317 | 29.44° C | 52% | 1009.5 hPa | 0 mm | - | 28 W/m² | - |
| 1777591013 | 30° C | 52% | 1009.5 hPa | 0 mm | - | 32 W/m² | - |
| 1777590708 | 30° C | 51% | 1009.3 hPa | 0 mm | - | 33 W/m² | - |
| 1777590404 | 30° C | 50% | 1009.3 hPa | 0 mm | - | 42 W/m² | - |
| 1777590102 | 30.56° C | 50% | 1009.3 hPa | 0 mm | - | 56 W/m² | - |
| 1777589798 | 30.56° C | 49% | 1009.4 hPa | 0 mm | - | 71 W/m² | - |
| 1777589498 | 30.56° C | 48% | 1009.2 hPa | 0 mm | - | 87 W/m² | - |
| 1777589192 | 30.56° C | 48% | 1009.3 hPa | 0 mm | - | 115 W/m² | - |
| 1777588889 | 30.56° C | 49% | 1009.4 hPa | 0 mm | - | 72 W/m² | - |
| 1777588585 | 30.56° C | 48% | 1009.1 hPa | 0 mm | - | 67 W/m² | - |
| 1777588280 | 30.56° C | 48% | 1009 hPa | 0 mm | - | 75 W/m² | - |
| 1777587976 | 30.56° C | 47% | 1009.3 hPa | 0 mm | - | 69 W/m² | - |
| 1777587672 | 31.11° C | 46% | 1009 hPa | 0 mm | - | 70 W/m² | - |
| 1777587366 | 31.67° C | 46% | 1009.1 hPa | 0 mm | - | 84 W/m² | - |
| 1777587062 | 31.67° C | 46% | 1009.2 hPa | 0 mm | - | 116 W/m² | - |
| 1777586758 | 31.67° C | 49% | 1009.1 hPa | 0 mm | - | 140 W/m² | - |
| 1777586454 | 31.11° C | 48% | 1009 hPa | 0 mm | - | 208 W/m² | - |
* Rain latest hour (hover to see other rain measurements)
** Current wind speed in m/s (hover to see current wind gust speed)